Thief River Falls, MN

6:31 PM CST on December 09, 2016 (GMT -0600)
Thief River Falls Regional

Weather History for KTVF - May, 2013

Change the Weather History Date:

Tuesday, May 7, 2013

  Actual Average Record
Temperature  
Mean Temperature 58 °F -  
Max Temperature 71 °F 57 °F 89 °F (1992)
Min Temperature 44 °F 38 °F 24 °F (1977)
Degree Days  
Heating Degree Days 8    
Growing Degree Days 8 (Base 50)    
Moisture  
Dew Point 46 °F    
Average Humidity 61    
Maximum Humidity 93    
Minimum Humidity 38    
Precipitation  
Precipitation 0.00 in - - ()
Sea Level Pressure  
Sea Level Pressure 29.97 in    
Wind  
Wind Speed 7 mph (SSE)    
Max Wind Speed 17 mph    
Max Gust Speed 24 mph    
Visibility 10 miles    
Events      
Averages and records for this station are not official NWS values.
T = Trace of Precipitation, MM = Missing Value Source: NWS Daily Summary

Daily Weather History Graph

Daily Weather History Graph

Search for Another Location

Airport or City:

Trip Planner

Search our weather history database for the weather conditions in past years. The results will help you decide how hot, cold, wet, or windy it might be!

Date:

Astronomy

May. 07, 2013 Rise Set
Actual Time 5:56 AM CDT 8:46 PM CDT
Civil Twilight 5:20 AM CDT 9:22 PM CDT
Nautical Twilight 4:35 AM CDT 10:08 PM CDT
Astronomical Twilight 3:40 AM CDT 11:04 PM CDT
Moon 4:41 AM CDT (5/7) 6:39 PM CDT (5/7)
Length of Visible Light 16h 02m
Length of Day
14h 50m
Waning Crescent, 5% of the Moon is Illuminated
May 7
Waning Crescent
May 9
New
May 17
First Quarter
May 24
Full
May 31
Last Quarter

Hourly Weather History & Observations

Time (CDT) Temp. Windchill Dew Point Humidity Pressure Visibility Wind Dir Wind Speed Gust Speed Precip Events Conditions
12:15 AM 51.8 °F - 44.6 °F 76% 30.02 in 10.0 mi SSE 4.6 mph - N/A   Clear
12:35 AM 51.8 °F - 44.6 °F 76% 30.02 in 10.0 mi SSE 4.6 mph - N/A   Clear
12:55 AM 50.0 °F - 44.6 °F 82% 30.02 in 10.0 mi SSE 5.8 mph - N/A   Clear
1:15 AM 50.0 °F - 44.6 °F 82% 30.02 in 10.0 mi SSE 4.6 mph - N/A   Clear
1:35 AM 48.2 °F - 44.6 °F 87% 30.02 in 10.0 mi SSE 3.5 mph - N/A   Clear
1:55 AM 50.0 °F - 44.6 °F 82% 30.02 in 10.0 mi SSE 3.5 mph - N/A   Clear
2:15 AM 48.2 °F - 44.6 °F 87% 30.02 in 10.0 mi Calm Calm - N/A   Clear
2:35 AM 48.2 °F - 44.6 °F 87% 30.02 in 10.0 mi Calm Calm - N/A   Clear
2:55 AM 46.4 °F 45.2 °F 44.6 °F 93% 30.02 in 10.0 mi SE 3.5 mph - N/A   Clear
3:15 AM 46.4 °F - 42.8 °F 87% 30.02 in 10.0 mi Calm Calm - N/A   Clear
3:35 AM 46.4 °F - 42.8 °F 87% 30.02 in 10.0 mi Calm Calm - N/A   Clear
3:55 AM 48.2 °F - 44.6 °F 87% 30.02 in 10.0 mi SE 3.5 mph - N/A   Clear
4:15 AM 46.4 °F 43.5 °F 42.8 °F 87% 30.02 in 10.0 mi SE 5.8 mph - N/A   Clear
4:35 AM 48.2 °F - 44.6 °F 87% 30.02 in 10.0 mi SE 4.6 mph - N/A   Clear
5:15 AM 46.4 °F - 44.6 °F 93% 30.02 in 10.0 mi Calm Calm - N/A   Clear
5:35 AM 46.4 °F 44.3 °F 42.8 °F 87% 30.02 in 10.0 mi SE 4.6 mph - N/A   Clear
5:55 AM 44.6 °F 42.2 °F 42.8 °F 93% 30.02 in 10.0 mi SE 4.6 mph - N/A   Clear
6:15 AM 44.6 °F 41.4 °F 42.8 °F 93% 30.02 in 10.0 mi SSE 5.8 mph - N/A   Clear
6:35 AM 44.6 °F 42.2 °F 42.8 °F 93% 30.02 in 10.0 mi SSE 4.6 mph - N/A   Clear
6:55 AM 46.4 °F 43.5 °F 42.8 °F 87% 30.02 in 10.0 mi SSE 5.8 mph - N/A   Clear
7:15 AM 48.2 °F - 44.6 °F 87% 30.02 in 10.0 mi SSE 4.6 mph - N/A   Clear
7:35 AM 50.0 °F - 46.4 °F 87% 30.03 in 10.0 mi SSE 4.6 mph - N/A   Clear
7:55 AM 51.8 °F - 46.4 °F 82% 30.03 in 10.0 mi SSE 5.8 mph - N/A   Clear
8:15 AM 53.6 °F - 48.2 °F 82% 30.02 in 10.0 mi South 3.5 mph - N/A   Clear
8:35 AM 57.2 °F - 48.2 °F 72% 30.02 in 10.0 mi South 9.2 mph - N/A   Clear
8:55 AM 57.2 °F - 48.2 °F 72% 30.02 in 10.0 mi South 9.2 mph - N/A   Clear
9:15 AM 60.8 °F - 48.2 °F 63% 30.02 in 10.0 mi South 9.2 mph - N/A   Clear
9:35 AM 60.8 °F - 48.2 °F 63% 30.02 in 10.0 mi SSW 9.2 mph - N/A   Clear
9:55 AM 62.6 °F - 50.0 °F 63% 30.01 in 10.0 mi South 9.2 mph - N/A   Clear
10:15 AM 64.4 °F - 48.2 °F 56% 30.01 in 10.0 mi South 9.2 mph - N/A   Clear
10:35 AM 64.4 °F - 48.2 °F 56% 30.00 in 10.0 mi SSW 10.4 mph - N/A   Clear
10:55 AM 64.4 °F - 48.2 °F 56% 30.00 in 10.0 mi South 11.5 mph - N/A   Partly Cloudy
11:15 AM 66.2 °F - 48.2 °F 52% 30.00 in 10.0 mi South 12.7 mph 17.3 mph N/A   Partly Cloudy
11:35 AM 66.2 °F - 48.2 °F 52% 30.00 in 10.0 mi SSW 12.7 mph - N/A   Partly Cloudy
11:55 AM 66.2 °F - 48.2 °F 52% 29.99 in 10.0 mi SSW 13.8 mph 18.4 mph N/A   Clear
12:15 PM 66.2 °F - 48.2 °F 52% 29.99 in 10.0 mi SSW 12.7 mph - N/A   Clear
12:35 PM 68.0 °F - 48.2 °F 49% 29.98 in 10.0 mi South 11.5 mph - N/A   Clear
12:55 PM 69.8 °F - 46.4 °F 43% 29.97 in 10.0 mi SSE 15.0 mph 23.0 mph N/A   Mostly Cloudy
1:15 PM 69.8 °F - 46.4 °F 43% 29.97 in 10.0 mi South 17.3 mph 24.2 mph N/A   Scattered Clouds
1:35 PM 69.8 °F - 46.4 °F 43% 29.96 in 10.0 mi South 11.5 mph 21.9 mph N/A   Scattered Clouds
1:55 PM 69.8 °F - 46.4 °F 43% 29.95 in 10.0 mi South 17.3 mph 21.9 mph N/A   Mostly Cloudy
2:15 PM 71.6 °F - 46.4 °F 41% 29.95 in 10.0 mi SSW 9.2 mph 21.9 mph N/A   Scattered Clouds
2:35 PM 69.8 °F - 46.4 °F 43% 29.94 in 10.0 mi South 15.0 mph 18.4 mph N/A   Partly Cloudy
2:55 PM 71.6 °F - 48.2 °F 43% 29.93 in 10.0 mi South 15.0 mph 20.7 mph N/A   Scattered Clouds
3:15 PM 71.6 °F - 46.4 °F 41% 29.93 in 10.0 mi South 10.4 mph 17.3 mph N/A   Scattered Clouds
3:35 PM 71.6 °F - 46.4 °F 41% 29.93 in 10.0 mi South 13.8 mph 20.7 mph N/A   Scattered Clouds
3:55 PM 71.6 °F - 44.6 °F 38% 29.92 in 10.0 mi SW 13.8 mph 20.7 mph N/A   Partly Cloudy
4:15 PM 71.6 °F - 44.6 °F 38% 29.92 in 10.0 mi South 9.2 mph 20.7 mph N/A   Clear
4:35 PM 71.6 °F - 44.6 °F 38% 29.91 in 10.0 mi South 13.8 mph - N/A   Scattered Clouds
4:55 PM 71.6 °F - 44.6 °F 38% 29.91 in 10.0 mi South 11.5 mph 18.4 mph N/A   Scattered Clouds
5:15 PM 71.6 °F - 44.6 °F 38% 29.91 in 10.0 mi South 16.1 mph - N/A   Mostly Cloudy
5:35 PM 71.6 °F - 44.6 °F 38% 29.91 in 10.0 mi SSW 12.7 mph - N/A   Scattered Clouds
5:55 PM 71.6 °F - 44.6 °F 38% 29.90 in 10.0 mi SSW 11.5 mph - N/A   Scattered Clouds
6:15 PM 71.6 °F - 44.6 °F 38% 29.90 in 10.0 mi SSW 9.2 mph - N/A   Partly Cloudy
6:35 PM 71.6 °F - 44.6 °F 38% 29.90 in 10.0 mi South 6.9 mph - N/A   Clear
6:55 PM 71.6 °F - 44.6 °F 38% 29.90 in 10.0 mi SSW 10.4 mph - N/A   Clear
7:15 PM 71.6 °F - 44.6 °F 38% 29.90 in 10.0 mi SSW 8.1 mph - N/A   Clear
7:35 PM 71.6 °F - 44.6 °F 38% 29.90 in 10.0 mi SSW 6.9 mph - N/A   Clear
7:55 PM 69.8 °F - 46.4 °F 43% 29.89 in 10.0 mi South 3.5 mph - N/A   Partly Cloudy
8:15 PM 69.8 °F - 44.6 °F 40% 29.89 in 10.0 mi SSE 3.5 mph - N/A   Clear
8:35 PM 68.0 °F - 46.4 °F 46% 29.89 in 10.0 mi East 5.8 mph - N/A   Clear
8:55 PM 66.2 °F - 44.6 °F 46% 29.90 in 10.0 mi East 6.9 mph - N/A   Clear
9:15 PM 66.2 °F - 46.4 °F 49% 29.90 in 10.0 mi East 5.8 mph - N/A   Partly Cloudy
9:35 PM 64.4 °F - 44.6 °F 49% 29.90 in 10.0 mi East 5.8 mph - N/A   Partly Cloudy
9:55 PM 64.4 °F - 44.6 °F 49% 29.90 in 10.0 mi ESE 5.8 mph - N/A   Mostly Cloudy
10:15 PM 62.6 °F - 44.6 °F 52% 29.90 in 10.0 mi ESE 6.9 mph - N/A   Overcast
10:35 PM 60.8 °F - 44.6 °F 55% 29.90 in 10.0 mi ESE 6.9 mph - N/A   Mostly Cloudy
10:55 PM 60.8 °F - 46.4 °F 59% 29.90 in 10.0 mi SE 6.9 mph - N/A   Mostly Cloudy
11:15 PM 60.8 °F - 44.6 °F 55% 29.90 in 10.0 mi SSE 5.8 mph - N/A   Overcast
11:35 PM 60.8 °F - 44.6 °F 55% 29.90 in 10.0 mi SSE 5.8 mph - N/A   Scattered Clouds
11:55 PM 59.0 °F - 44.6 °F 59% 29.90 in 10.0 mi SSE 6.9 mph - N/A   Clear